User: anonymous   Login
Location: Caltech
(34.1382°N, 118.1253°W)
Time: 01:12:50
(UTC-07:00)
Language:

ADEOS II - Orbit

View from above orbital plane
View from above orbital plane
View from above satellite
View from above satellite

Ground track
Ground track

The orbit data is extracted from the following two-line orbital elements,

1 27597U 02056A   15148.57397747  .00000135  00000-0  71977-4 0  9995
2 27597 098.2860 143.0833 0001955 060.4596 047.0700 14.27085877648350
Epoch (UTC): 28 May 2015 13:46:31
Eccentricity: 0.0001955
inclination: 98.2860°
perigee height: 800 km
apogee height: 803 km
right ascension of ascending node: 143.0833°
argument of perigee: 60.4596°
revolutions per day: 14.27085877
mean anomaly at epoch: 47.0700°
orbit number at epoch: 64835

The dashed part of the orbit path shows where the satellite is in the earth's shadow,  

DLR